Volver al catálogo

YAOGAN-30 C

ActivoMilitarVLEO
NORAD 42947·PAYLOAD·🇨🇳 China

Lanzado Sep 29, 2017 desde Xichang Satellite Launch Center

Loading…

Próximos Pases (próximas 24 horas)

TLE

ActualizadoSource: Space-Track

Época: Sep 14, 2026, 07:23 UTC

1 42947U 17058C   26257.30765483  .00002461  00000-0  17210-3 0  9992
2 42947  34.9971 195.7761 0005798 270.8666  89.1379 15.04956246489258

Sigue YAOGAN-30 C en tiempo real con AllMySat

Download on the App Store